User: anonymous   Login
Location: Unspecified
(42.3650°N, 71.1030°W)
Time: 09:45:30
(UTC+00:00)
Language:

STRAND 1 - Orbit

View from above orbital plane
View from above orbital plane
View from above satellite
View from above satellite

Ground track
Ground track

The orbit data is extracted from the following two-line orbital elements,

1 39090U 13009E   24205.43716732  .00000999  00000-0  35732-3 0  9990
2 39090  98.3816  32.7256 0009647 138.6491 221.5428 14.36138605597441
Epoch (UTC): 23 July 2024 10:29:31
Eccentricity: 0.0009647
inclination: 98.3816°
perigee height: 764 km
apogee height: 778 km
right ascension of ascending node: 32.7256°
argument of perigee: 138.6491°
revolutions per day: 14.36138605
mean anomaly at epoch: 221.5428°
orbit number at epoch: 59744

The dashed part of the orbit path shows where the satellite is in the earth's shadow,  

DLR